Location: *
(6.0000°S, 32.3997°W)
Time: 12:07:35
(UTC+00:00)

Centaur Rocket - Pass Details

Date: 01 April 2020
Orbit: 256 x 9171 km, 18.1° (Epoch: 05 June)

Event Time Altitude Azimuth Distance (km) Brightness Sun altitude
Rises 20:23:50 0° 293° (WNW) 4,097 9.0 -3.1°
Reaches altitude 10° 20:27:56 10° 297° (WNW) 2,203 7.3 -4.2°
Maximum altitude 20:32:08 53° 14° (NNE) 477 2.5 -5.2°
Drops below altitude 10° 20:34:17 10° 94° (E) 1,132 3.7 -5.7°
Enters shadow 20:34:36 - 96° (E) 1,274 4.0 -5.8°
